Regional Weather Roundup
Issued by NWS

Home | Current Version | Previous Version | Text Only | Print | Product List | Glossary On
Versions: 1 2 3 4 5 6 7 8 9 10 11 12 13 14 15 16 17 18 19 20 21 22 23 24 25 26 27 28 29 30 31 32 33 34 35 36 37 38 39 40 41 42 43 44 45 46 47 48 49 50
000
ASUS43 KMKX 220121
RWRWI

WISCONSIN REGIONAL WEATHER ROUNDUP
NATIONAL WEATHER SERVICE MILWAUKEE/SULLIVAN WI
800 PM CDT TUE OCT 21 2014

NOTE: "FAIR" INDICATES FEW OR NO CLOUDS BELOW 12,000 FEET WITH NO
SIGNIFICANT WEATHER AND/OR OBSTRUCTIONS TO VISIBILITY.

WIZ001-002-006>008-014>016-023>028-220200-
NORTHWEST WISCONSIN

CITY           SKY/WX    TMP DP  RH WIND       PRES   REMARKS
SUPERIOR ARPT  CLEAR     44  40  85 E8        30.20S
ASHLAND        CLEAR     38  36  92 E5        30.23S WCI  34
HAYWARD        CLEAR     45  35  68 E3        30.20R
SIREN          CLEAR     46  36  67 SE3       30.18R
CUMBERLAND     CLEAR     45  34  65 SE6       30.19S
RICE LAKE      CLEAR     44  35  71 SE3       30.21R
CHETEK         CLEAR     45  36  71 E6        30.21R
LADYSMITH      FAIR      45  35  68 SE3       30.23R
EAU CLAIRE     CLEAR     45  35  68 E7        30.21R
MENOMONIE      CLEAR     44  35  71 E5        30.20R
NEW RICHMOND   CLEAR     45  36  70 SE3       30.18R
OSCEOLA        CLEAR     46  37  71 SE6       30.20R
$$

WIZ003>005-009-010-017-018-220200-
NORTH CENTRAL WISCONSIN

CITY           SKY/WX    TMP DP  RH WIND       PRES   REMARKS
MANITOWISH WTR CLEAR     33  32  99 CALM      30.22S
ARBOR VITAE    CLEAR     37  34  92 CALM      30.23R
WOODRUFF       CLEAR     37  34  92 CALM      30.23R
RHINELANDER    CLEAR     35  31  85 CALM      30.24R
EAGLE RIVER    CLEAR     32  32  99 CALM      30.23S FOG
LAND O LAKES   CLEAR     31  30  97 CALM      30.24S
PHILLIPS       CLEAR     38  33  81 E3        30.21S
TOMAHAWK       CLEAR     33  32  95 CALM      30.24R
MEDFORD        CLEAR     37  34  89 CALM      30.22R
MERRILL        CLEAR     36  32  87 CALM      30.24R
$$

WIZ029-030-035-036-043>047-220200-
CENTRAL WISCONSIN

CITY           SKY/WX    TMP DP  RH WIND       PRES   REMARKS
WAUSAU         CLEAR     40  34  79 CALM      30.23R
MOSINEE        CLEAR     43  34  70 CALM      30.24R
MARSHFIELD     CLEAR     42  34  73 CALM      30.23R
STEVENS POINT  CLEAR     35  32  90 CALM      30.25S
WAUPACA        CLEAR     40  34  79 CALM      30.26R
WAUTOMA        PTCLDY    36  34  93 CALM      30.26R
WISC RAPIDS    CLEAR     37  35  92 CALM      30.26R
CAMP DOUGLAS   CLEAR     34  34 100 S3        30.25R
$$

WIZ011>013-019>022-031-037>040-048>050-220200-
NORTHEAST WISCONSIN

CITY           SKY/WX    TMP DP  RH WIND       PRES   REMARKS
ANTIGO         CLEAR     38  32  81 SE5       30.25R WCI  34
SHAWANO        CLEAR     40  34  76 SE3       30.26R HAZE
OCONTO         CLEAR     35  35  97 CALM      30.27R
STURGEON BAY   CLEAR     43  28  56 N3        30.28R
GREEN BAY      CLEAR     39  35  86 CALM      30.27R
MANITOWOC      CLEAR     38  37  97 CALM      30.27R
APPLETON       CLEAR     45  28  53 VRB5      30.26R
CLINTONVILLE   CLEAR     37  32  81 CALM      30.26R
OSHKOSH        CLEAR     45  32  60 E5        30.25R
$$

WIZ032>034-041-042-053>061-220200-
SOUTHWEST WISCONSIN

CITY           SKY/WX    TMP DP  RH WIND       PRES   REMARKS
LA CROSSE      CLEAR     49  37  63 E7        30.22R
SPARTA         CLEAR     38  33  81 CALM      30.25R
VIROQUA        CLEAR     42  36  77 SE6       30.23R
BOSCOBEL       CLEAR     45  36  70 N3        30.25R
PRAIRIE DU CHI CLEAR     46  36  67 E7        30.23R
PLATTEVILLE    CLEAR     42  37  82 E7        30.25R
$$

WIZ056-057-062-063-064-067-068-220200-
SOUTH CENTRAL WISCONSIN

CITY           SKY/WX    TMP DP  RH WIND       PRES   REMARKS
REEDSBURG      CLEAR     41  35  80 CALM      30.24S
BARABOO/DELLS  CLEAR     37  33  85 CALM      30.25S
LONE ROCK      CLEAR     44  35  70 E7        30.25R
MINERAL POINT  CLEAR     43  36  75 E3        30.24R
MADISON        CLEAR     37  34  89 CALM      30.26R
MIDDLETON      CLEAR     37  35  92 CALM      30.26R
WATERTOWN      CLEAR     35  34  94 CALM      30.25R
MONROE         CLEAR     41  36  81 NE5       30.24R
JANESVILLE     CLEAR     45  36  70 NE3       30.24R
$$

WIZ051-052-058>065-066-070>072-220200-
SOUTHEAST WISCONSIN

CITY           SKY/WX    TMP DP  RH WIND       PRES   REMARKS
MILWAUKEE      PTCLDY    45  36  70 N10       30.25R
WAUKESHA       CLEAR     39  36  87 NE5       30.26R
MILWAUKEE/TIMM CLEAR     43  36  75 NE5       30.26R
RACINE         CLEAR     46  36  68 N12       30.27R
BURLINGTON     CLEAR     34  33  95 CALM      30.25S
KENOSHA        CLEAR     41  37  86 N5        30.25R
FOND DU LAC    CLEAR     42  31  64 E7        30.26R
SHEBOYGAN      CLEAR     38  34  85 N5        30.26R WCI  34
WEST BEND      CLEAR     39  34  81 CALM      30.26R
JUNEAU         CLEAR     38  35  87 CALM      30.26S
$$

LSZ147-162-220200-
LAKE SUPERIOR

STATION/POSITION TIME  TEMP    WIND        PRES    WAVE
                       AIR SEA DIR/SP/G            HT/PER
                 (UTC) (F)     (DEG/KT/KT) (MB)    (FT/S)
W MID LAKE BUOY  0050   43 46   90/ 16/ 17 1024.7F   2/ 5
DEVILS ISLAND    0100   44     100/ 16/ 17 1024.7R
PORT WING        0040   42     100/  3/  8 1023.4R
SAXON HARBOR     0040   37        CALM     1023.4S
$$

LMZ867-665-643>646-220200-
LAKE MICHIGAN

STATION/POSITION TIME  TEMP    WIND        PRES    WAVE
                       AIR SEA DIR/SP/G            HT/PER
                 (UTC) (F)     (DEG/KT/KT) (MB)    (FT/S)
CHAMBERS ISLAND  0000   48      30/ 14/ 18 1024.7R
N MID LAKE BUOY  0050   47 51   20/ 14/ 16 1025.3R   1/ 3
NORTHPORT PIER   0000   47      10/ 11/ 13 1025.1R
KEWAUNEE LAKESHO 0100   47      60/  6/  9 1024.0R
SHEBOYGAN LAKESH 0100   47 50   30/ 15/ 16 1025.2R
PORT WASHINGTON  0000   45     360/  4/  9 1024.7R
ATWATER BUOY     0100   49      20/ 16/ 19 1025.1R
MILWAUKEE LAKESH 0100   48      30/ 15/ 17   N/A
S MID LAKE BUOY  0050   49 54  350/ 14/ 17 1023.9R   5/ 7
KENOSHA   LAKESH 0100   48      20/ 16/ 19 1024.0R
$$

TC  - TEMPERATURE IN CELSIUS
VSB - VISIBILITY IN STATUTE MILES
WCI - WIND CHILL INDEX
HX  - HEAT INDEX




USA.gov is the U.S. government's official web portal to all federal, state and local government web resources and services.